Home > Weather > Landshut > Past weeks

Flag for Germany Past Weather in Landshut, Bavaria, Germany — Yesterday and Last 2 Weeks

Now
59 °F

Passing clouds.


Feels Like: 59 °F
Forecast: 59 / 80 °F
Wind: 5 mph from Northeast

Location: Munich / Franz Josef Strauss Airport

Current Time: Aug 24, 2016 at 8:32:33 AM

Latest Report: Aug 24, 2016 at 7:50 AM


Visibility: N/A

Pressure: 30.30 "Hg

Humidity: 100%

Dew Point: 59 °F

Location of LandshutLocation

Past Weather in Landshut — Graph

°F

Landshut Temperature Yesterday

Maximum temperature yesterday: 75 °F (at 3:20 PM)
Minimum temperature yesterday: 50 °F (at 3:50 AM)
Average temperature yesterday: 63 °F

High & Low Weather Summary for the Past Weeks

 TemperatureHumidityPressure
High81 °F (Aug 14, 2:50 PM)100% (Aug 9, 7:20 AM)30.42 "Hg (Aug 9, 7:20 AM)
Low48 °F (Aug 11, 5:50 AM)37% (Aug 11, 4:20 PM)29.83 "Hg (Aug 18, 12:50 PM)
Average63 °F78%30.14 "Hg
* Reported Aug 9 7:20 AM — Aug 24 7:20 AM, Landshut, Weather by CustomWeather, © 2016

Note: Actual official high and low records may vary slightly from our data, if they occured in-between our weather recording intervals... More about our weather records

Advertising

Landshut Weather History for the Previous 24 Hours

Scroll right to see more
 ConditionsComfort  
Time TempWeatherWind HumidityBarometerVisibility
7:20 AM
Wed, Aug 24
54 °FSunny.2 mph100%30.30 "Hg10 mi
6:50 AM52 °FFog.2 mph100%30.30 "HgN/A
6:20 AM54 °FFog.2 mph100%30.30 "HgN/A
5:50 AM54 °FFog.3 mph100%30.27 "HgN/A
5:20 AM54 °FPassing clouds.5 mph100%30.27 "HgN/A
4:50 AM55 °FPassing clouds.3 mph100%30.27 "HgN/A
4:20 AM54 °FFog.3 mph100%30.30 "HgN/A
3:50 AM54 °FFog.2 mph100%30.30 "HgN/A
3:20 AM54 °FFog.3 mph100%30.30 "HgN/A
2:50 AM54 °FLight fog.2 mph100%30.30 "HgN/A
2:20 AM54 °FFog.2 mph100%30.30 "HgN/A
1:50 AM55 °FFog.2 mph100%30.30 "HgN/A
1:20 AM55 °FFog.3 mph100%30.33 "HgN/A
12:50 AM57 °FFog.1 mph100%30.33 "HgN/A
12:20 AM57 °FClear.1 mph100%30.33 "Hg10 mi
11:50 PM
Tue, Aug 23
57 °FPassing clouds.1 mph100%30.33 "HgN/A
11:20 PM59 °FPassing clouds.2 mph94%30.33 "HgN/A
10:50 PM59 °FPassing clouds.3 mph100%30.33 "HgN/A
10:20 PM61 °FPassing clouds.1 mph94%30.33 "HgN/A
9:50 PM63 °FPassing clouds.1 mph88%30.33 "HgN/A
9:20 PM64 °FPassing clouds.2 mph83%30.33 "HgN/A
8:50 PM66 °FScattered clouds.5 mph78%30.33 "HgN/A
8:20 PM70 °FScattered clouds.3 mph64%30.33 "HgN/A
7:50 PM72 °FScattered clouds.3 mph61%30.33 "HgN/A
7:20 PM73 °FScattered clouds.5 mph57%30.33 "HgN/A
6:50 PM73 °FScattered clouds.5 mph57%30.33 "HgN/A
6:20 PM75 °FScattered clouds.7 mph54%30.33 "HgN/A
5:50 PM75 °FScattered clouds.5 mph54%30.33 "HgN/A
5:20 PM75 °FScattered clouds.6 mph54%30.33 "HgN/A
4:50 PM75 °FScattered clouds.5 mph54%30.33 "HgN/A
4:20 PM75 °FScattered clouds.6 mph50%30.33 "HgN/A
3:50 PM75 °FScattered clouds.3 mph50%30.36 "HgN/A
3:20 PM75 °FPassing clouds.2 mph50%30.36 "HgN/A
2:50 PM73 °FPassing clouds.2 mph53%30.36 "HgN/A
2:20 PM73 °FPassing clouds.5 mph50%30.36 "HgN/A
1:50 PM73 °FPassing clouds.2 mph50%30.39 "HgN/A
1:20 PM72 °FPassing clouds.5 mph57%30.39 "HgN/A
12:50 PM72 °FPassing clouds.2 mph53%30.39 "HgN/A
12:20 PM72 °FPassing clouds.5 mph53%30.39 "HgN/A
11:50 AM70 °FPassing clouds.2 mph60%30.42 "HgN/A
11:20 AM70 °FPassing clouds.3 mph57%30.42 "HgN/A
10:50 AM68 °FPassing clouds.3 mph64%30.42 "HgN/A
10:20 AM68 °FPassing clouds.1 mph64%30.42 "HgN/A
9:50 AM66 °FSunny.2 mph68%30.42 "Hg10 mi
9:20 AM63 °FSunny.2 mph73%30.42 "Hg10 mi
8:50 AM61 °FSunny.2 mph77%30.42 "Hg10 mi
8:20 AM59 °FSunny.2 mph88%30.42 "Hg10 mi
Weather by CustomWeather, © 2016

See weather overviewHow to use our weather pages